Location: *
(37.5724°S, 58.0067°E)
Time: 10:53:35
(UTC+00:00)

Lacrosse 5 - Visible Passes

Search period start: 17 January 2021 00:00
Search period end: 27 January 2021 00:00
Orbit: 713 x 726 km, 57.0° (Epoch: 12 January)

Date Brightness Start Highest point End Pass type
(mag) Time Alt. Az. Time Alt. Az. Time Alt. Az.
17 Jan 2.9 20:49:32 44° SSE 20:49:32 44° SSE 20:53:04 10° SE visible
17 Jan 4.1 22:28:43 12° WSW 22:31:37 18° SSW 22:35:08 10° SSE visible
18 Jan 3.8 19:57:58 22° ESE 19:57:58 22° ESE 19:59:49 10° SE visible
18 Jan 3.5 21:37:08 26° SW 21:38:02 27° SW 21:42:26 10° SSE visible
19 Jan 3.0 20:45:28 41° SSW 20:45:28 41° SSW 20:49:35 10° SSE visible
19 Jan 4.5 22:26:32 10° SW 22:28:50 13° SSW 22:31:10 10° S visible
20 Jan 3.3 19:53:45 33° SE 19:53:45 33° SE 19:56:35 10° SE visible
20 Jan 4.2 21:32:54 14° WSW 21:35:06 18° SSW 21:38:39 10° SSE visible
21 Jan 3.9 19:01:56 18° SE 19:01:56 18° SE 19:03:20 10° SE visible
21 Jan 3.6 20:41:05 27° SW 20:41:32 27° SW 20:45:57 10° SSE visible
22 Jan 3.1 19:49:07 40° S 19:49:07 40° S 19:53:06 10° SSE visible
22 Jan 4.6 21:30:01 10° SW 21:32:21 13° SSW 21:34:41 10° S visible
23 Jan 3.0 18:56:57 38° SE 18:56:57 38° SE 19:00:05 10° SE visible
23 Jan 4.3 20:36:03 13° WSW 20:38:37 18° SSW 20:42:11 10° SSE visible
24 Jan 4.9 00:07:06 10° S 00:09:01 12° SSE 00:10:56 10° SE visible
24 Jan 3.2 18:04:25 27° ESE 18:04:25 27° ESE 18:06:50 10° SE visible
24 Jan 3.7 19:43:30 24° WSW 19:45:03 28° SW 19:49:28 10° SSE visible
25 Jan 3.4 17:11:09 20° E 17:11:09 20° E 17:13:12 10° ESE visible
25 Jan 2.8 18:50:09 35° W 18:51:39 45° SW 18:56:37 10° SSE visible
25 Jan 4.8 20:33:30 10° SW 20:35:51 13° SSW 20:38:13 10° S visible
26 Jan 4.7 00:03:02 10° SSW 00:06:17 16° SSE 00:09:32 10° ESE visible
26 Jan 3.5 16:13:40 10° NE 16:16:07 14° ENE 16:18:35 10° E visible
26 Jan 1.8 17:53:20 10° NW 17:58:26 82° SW 18:03:35 10° SE visible
26 Jan 4.4 19:38:35 10° WSW 19:42:08 18° SSW 19:45:42 10° SSE visible
26 Jan 5.0 23:10:38 10° S 23:12:31 12° SSE 23:14:24 10° SE visible
